Starlink 30240

operational
NORAD ID: 57404 Int'l Des: 2023-102 Owner: SPXS Country: US Constellation: starlink
LEOCIRCULAR

关于 Starlink 30240

正在加载描述...

实时位置

正在加载3D地球...

即将过境

高度历史

Altitude vs Time

uPlot chart will show altitude changes over time

两行轨道根数

1 57404U 23102A 25306.45184995 .00000176 00000-0 28071-4 0 9995
2 57404 43.0057 220.4973 0001108 272.3593 87.7123 15.02531401127098
Epoch: Nov 2, 2025 • Age: 15 hours

当前状态

高度 559.5 km
速度 7.59 km/s
星下点 26.11°N, 174.56°W
发射日期 Jul 19, 2023
运行时间 2.2 years
类型 internet

技术详情

分类 Payload
质量 730.00 kg
干质量 700.00 kg
总质量 730.00 kg
长度 0.30 m
直径 4.10 m
跨度 29.00 m
形状 Box + pan
制造商 SPXS
平台类型 Starlink V2M
阶段状态 In Orbit
所有者/国家 SPXS/US

大型星座

Loading constellations...